Regional Weather Roundup
Issued by NWS

Home | Current Version | Previous Version | Text Only | Print | Product List | Glossary On
Versions: 1 2 3 4 5 6 7 8 9 10 11 12 13 14 15 16 17 18 19 20 21 22 23 24 25 26 27 28 29 30 31 32 33 34 35 36 37 38 39 40 41 42 43 44 45 46 47 48 49 50
000
ASUS46 KPQR 290610
RWROR

OREGON REGIONAL WEATHER ROUNDUP
NATIONAL WEATHER SERVICE PORTLAND OR
1100 PM PDT TUE JUL 28 2015

NOTE: "FAIR" INDICATES FEW OR NO CLOUDS BELOW 12,000 FEET WITH
NO SIGNIFICANT WEATHER AND/OR OBSTRUCTIONS TO VISIBILITY.

ORZ001>013-290700-
NORTHWEST OREGON


CITY           SKY/WX    TMP DP  RH WIND       PRES   REMARKS
ASTORIA        CLEAR     61  57  87 S3        30.18S
6HR MIN TEMP:  61; 6HR MAX TEMP:  73;

NEWPORT        CLEAR     54  52  94 CALM      30.14S FOG
PORTLAND       CLEAR     75  52  44 NW10      30.11S
6HR MIN TEMP:  74; 6HR MAX TEMP:  87;

VANCOUVER WA   CLEAR     74  50  42 NW8       30.11S
6HR MIN TEMP:  74; 6HR MAX TEMP:  86;

SCAPPOOSE      CLEAR     74  48  39 CALM      30.12S
6HR MIN TEMP:  74; 6HR MAX TEMP:  87;

HILLSBORO      CLEAR     70  48  45 W8        30.12S
6HR MIN TEMP:  70; 6HR MAX TEMP:  86;

AURORA         CLEAR     74  48  39 N8        30.12S
6HR MIN TEMP:  73; 6HR MAX TEMP:  87;

MCMINNVILLE    CLEAR     73  48  41 CALM      30.13R
6HR MIN TEMP:  72; 6HR MAX TEMP:  89;

SALEM          CLEAR     74  49  41 N6        30.11R
6HR MIN TEMP:  74; 6HR MAX TEMP:  88;

CORVALLIS      CLEAR     75  46  35 N10       30.12S
EUGENE         CLEAR     66  48  52 N8        30.09S
6HR MIN TEMP:  66; 6HR MAX TEMP:  87;

$$

ORZ021-028-290700-
SOUTHWEST OREGON


CITY           SKY/WX    TMP DP  RH WIND       PRES   REMARKS
NORTH BEND     CLEAR     59  57  94 N7        30.08S
6HR MIN TEMP:  59; 6HR MAX TEMP:  70;

BROOKINGS      CLEAR     89  44  20 NE9G16    29.92R
ROSEBURG       CLEAR     78  46  32 NE5       30.06R
6HR MIN TEMP:  78; 6HR MAX TEMP:  90;

SEXTON SUMMIT  CLEAR     62  43  49 N14       30.17S
6HR MIN TEMP:  62; 6HR MAX TEMP:  78;

MEDFORD        CLEAR     79  47  32 CALM      30.04R
6HR MIN TEMP:  78; 6HR MAX TEMP:  97;

$$

ORZ014>016-041-290700-
COLUMBIA GORGE


CITY           SKY/WX    TMP DP  RH WIND       PRES   REMARKS
TROUTDALE      CLEAR     74  49  41 CALM      30.09S
6HR MIN TEMP:  73; 6HR MAX TEMP:  88;

THE DALLES     CLEAR     71  41  33 E6        30.10R
6HR MIN TEMP:  70; 6HR MAX TEMP:  89;

$$

ORZ029>031-041-044-049-050-061>064-502-503-505>511-290700-
EASTERN OREGON


CITY           SKY/WX    TMP DP  RH WIND       PRES   REMARKS
REDMOND        CLEAR     66  36  32 NW7       30.22R
6HR MIN TEMP:  59; 6HR MAX TEMP:  83;

BEND           CLEAR     64  32  29 W6        30.24R
PRINEVILLE     CLEAR     64  34  32 NW3       30.21S
KLAMATH FALLS  CLEAR     65  34  31 E12       30.18R
6HR MIN TEMP:  63; 6HR MAX TEMP:  84;

LAKEVIEW       CLEAR     54  30  40 N7        30.24S
HERMISTON      CLEAR     67  44  43 CALM      30.11S
6HR MIN TEMP:  63; 6HR MAX TEMP:  86;

PENDLETON      CLEAR     67  36  31 E6        30.15S
6HR MIN TEMP:  63; 6HR MAX TEMP:  84;

JOHN DAY       CLEAR     63  31  30 CALM      30.24R
MEACHAM        CLEAR     50  39  66 CALM      30.26S
6HR MIN TEMP:  50; 6HR MAX TEMP:  75;

LA GRANDE      CLEAR     61  34  36 NW8       30.21R
6HR MIN TEMP:  57; 6HR MAX TEMP:  81;

BAKER CITY     NOT AVBL
BURNS          CLEAR     52  28  39 N3        30.26R
6HR MIN TEMP:  51; 6HR MAX TEMP:  79;

ROME             N/A     60  22  23 NE9       30.24S
6HR MIN TEMP:  60; 6HR MAX TEMP:  82;

ONTARIO        CLEAR     59  42  53 CALM      30.19R
6HR MIN TEMP:  59; 6HR MAX TEMP:  82;

$$


USA.gov is the U.S. government's official web portal to all federal, state and local government web resources and services.